This is the latest recevied weather packets stored in our database for station/object KE5WTH-14. If no packets are shown the sender has not sent any weather packets the latest 1 day(s).
| Time | Temp. | Humidity | Pressure | Rain* | Wind** | Luminosity | Snow |
|---|---|---|---|---|---|---|---|
| 1777990475 | 22.78° C | 83% | 1004.5 hPa | 0 mm | 3.58 m/s, 179° | 250 W/m² | - |
| 1777990419 | 22.78° C | 83% | 1004.5 hPa | 0 mm | 3.13 m/s, 226° | 250 W/m² | - |
| 1777990388 | 22.78° C | 83% | 1004.4 hPa | 0 mm | 3.13 m/s, 224° | 239 W/m² | - |
| 1777990358 | 22.78° C | 83% | 1004.5 hPa | 0 mm | 3.58 m/s, 183° | 229 W/m² | - |
| 1777990326 | 22.78° C | 83% | 1004.5 hPa | 0 mm | 4.02 m/s, 206° | 213 W/m² | - |
| 1777990167 | 22.78° C | 83% | 1004.5 hPa | 0 mm | 4.92 m/s, 197° | 225 W/m² | - |
| 1777990098 | 22.78° C | 83% | 1004.5 hPa | 0 mm | 4.92 m/s, 193° | 225 W/m² | - |
| 1777990035 | 22.78° C | 83% | 1004.5 hPa | 0 mm | 4.92 m/s, 190° | 229 W/m² | - |
| 1777989975 | 22.78° C | 83% | 1004.5 hPa | 0 mm | 4.92 m/s, 209° | 222 W/m² | - |
| 1777989912 | 22.78° C | 83% | 1004.6 hPa | 0 mm | 4.92 m/s, 212° | 232 W/m² | - |
| 1777989850 | 22.78° C | 83% | 1004.5 hPa | 0 mm | 4.92 m/s, 196° | 223 W/m² | - |
| 1777989790 | 22.78° C | 83% | 1004.5 hPa | 0 mm | 5.81 m/s, 214° | 216 W/m² | - |
| 1777989730 | 22.78° C | 83% | 1004.5 hPa | 0 mm | 4.02 m/s, 204° | 200 W/m² | - |
| 1777989668 | 22.78° C | 83% | 1004.6 hPa | 0 mm | 3.58 m/s, 195° | 199 W/m² | - |
| 1777989609 | 22.78° C | 83% | 1004.6 hPa | 0 mm | 4.02 m/s, 186° | 190 W/m² | - |
| 1777989548 | 22.78° C | 83% | 1004.7 hPa | 0 mm | 3.58 m/s, 189° | 186 W/m² | - |
| 1777989484 | 22.78° C | 83% | 1004.7 hPa | 0 mm | 3.58 m/s, 183° | 193 W/m² | - |
| 1777989425 | 22.78° C | 83% | 1004.8 hPa | 0 mm | 4.02 m/s, 214° | 181 W/m² | - |
| 1777989363 | 22.78° C | 83% | 1004.8 hPa | 0 mm | 4.02 m/s, 210° | 150 W/m² | - |
| 1777989303 | 22.78° C | 83% | 1004.9 hPa | 0 mm | 4.02 m/s, 196° | 153 W/m² | - |
| 1777989243 | 22.78° C | 83% | 1004.8 hPa | 0 mm | 4.02 m/s, 157° | 148 W/m² | - |
| 1777989184 | 22.78° C | 83% | 1004.7 hPa | 0 mm | 4.02 m/s, 221° | 142 W/m² | - |
| 1777989112 | 22.78° C | 83% | 1004.7 hPa | 0 mm | 3.58 m/s, 195° | 139 W/m² | - |
| 1777989052 | 22.78° C | 83% | 1004.8 hPa | 0 mm | 3.13 m/s, 224° | 128 W/m² | - |
| 1777988990 | 22.78° C | 83% | 1004.7 hPa | 0 mm | 3.13 m/s, 203° | 135 W/m² | - |
* Rain latest hour (hover to see other rain measurements)
** Current wind speed in m/s (hover to see current wind gust speed)